Tracking 29528 objects as of 15-Sep-2024
HD Live streaming from Space Station
objects crossing your sky now

ONEWEB-0041

Track ONEWEB-0041 now!
10-day predictions
ONEWEB-0041 is classified as:


NORAD ID: 45148
Int'l Code: 2020-008T
Perigee: 1,073.2 km
Apogee: 1,096.7 km
Inclination: 87.9 °
Period: 106.8 minutes
Semi major axis: 7455 km
RCS: Unknown
Launch date: February 6, 2020
Source: United Kingdom (UK)
Launch site: TYURATAM MISSILE AND SPACE COMPLEX (TTMTR)
Your satellite tracking list
Your tracking list is empty




NASA's NSSDC Master Catalog

Two Line Element Set (TLE):
1 45148U 20008T   24258.72539137  .00000189  00000-0  28253-3 0  9991
2 45148  87.9378 137.2750 0015743 269.6647  90.2698 13.48489688232540
Source of the keplerian elements: AFSPC